Location: Colonie
(42.7179°N, 73.8335°W)
Time: 09:41:58
(UTC+00:00)

CZ-4B R/B - Pass Details

Date: 29 October 2020
Orbit: 389 x 462 km, 97.6° (Epoch: 23 November)

Event Time Altitude Azimuth Distance (km) Brightness Sun altitude
Rises 23:21:05 0° 357° (N) 2,378 5.1 -17.0°
Reaches altitude 10° 23:23:29 10° 339° (NNW) 1,493 4.3 -17.5°
Maximum altitude 23:25:49 19° 292° (WNW) 1,047 4.1 -17.9°
Drops below altitude 10° 23:28:06 10° 244° (WSW) 1,457 5.0 -18.3°
Sets 23:30:24 0° 226° (SW) 2,298 5.7 -18.7°
